Location: College Park
(38.9810°N, 76.9370°W)
Time: 16:41:48

Hubble Space Telescope - Pass Details

Date: 14 March 2018
Orbit: 537 x 541 km, 28.5° (Epoch: 20 March)

Event Time Altitude Azimuth Distance (km) Brightness Sun altitude
Rises 21:39:04 0° 249° (WSW) 2,677 5.0 -28.4°
Reaches altitude 10° 21:41:56 10° 229° (SW) 1,785 3.7 -28.9°
Enters shadow 21:42:10 11° 226° (SW) 1,724 3.6 -29.0°
